Weather observations for the past three days for
Sioux City, Sioux Gateway Airport
Imperial (Metric)
Date Time (cdt) Wind (mph) Vis. (mi.) Weather Sky Cond. Temperature (ºF) Relative Humidity Wind Chill (°F) Heat Index (°F) Pressure Precipitation (in)
Air Dwpt 6 hour altimeter (in) sea level (mb) 1 hr 3 hr 6 hr
Max. Min.
20 10:52 S 3 10.00 Overcast FEW019 OVC029 72 66 82% 30.12 1019.3
20 09:52 S 5 9.00 Overcast SCT009 BKN034 OVC065 70 66 87% 30.11 1019.2
20 08:52 SE 7 10.00 Overcast FEW007 SCT013 OVC032 66.9 64 91% 30.12 1019.4
20 07:52 SE 7 10.00 Overcast FEW012 OVC034 66 64 93% 30.1 1019.0
20 06:52 Calm 9.00 Overcast BKN035 OVC046 66 64 66.9 63 93% 30.09 1018.6
20 05:52 SE 8 6.00 Fog/Mist BKN038 OVC047 64.9 64 97% 30.09 1018.4
20 04:52 SE 6 6.00 Fog/Mist BKN042 64 63 96% 30.07 1018.1
20 03:52 E 7 8.00 A Few Clouds FEW007 64.9 64 97% 30.07 1017.9
20 02:52 SE 6 10.00 Overcast BKN049 BKN055 OVC070 66 64 93% 30.07 1017.9
20 01:52 SE 6 10.00 Overcast FEW049 OVC070 66.9 64 91% 30.07 1017.7
20 00:52 E 3 10.00 Overcast SCT048 OVC060 66.9 64.9 70 64.9 93% 30.07 1017.8
19 23:52 SE 5 10.00 Overcast OVC050 66.9 64.9 93% 30.07 1017.7
19 22:52 SE 3 10.00 Fair CLR 66 64 93% 30.08 1017.9
19 21:52 SE 5 10.00 Overcast SCT048 OVC070 68 64.9 90% 30.07 1017.8
19 20:52 SE 6 10.00 Overcast BKN048 OVC060 68 66 93% 30.05 1017.0
19 19:52 SE 8 10.00 Overcast BKN070 OVC100 70 66 87% 30.04 1016.9
19 18:52 SE 7 10.00 Overcast OVC100 69.1 66 71.1 66 90% 30.04 1016.9 0.3
19 17:52 SE 9 10.00 Overcast OVC110 68 66 93% 30.03 1016.6
19 16:52 SE 13 8.00 Light Rain BKN110 66.9 64.9 93% 30.06 1017.5 0.09
19 15:52 S 9 5.00 Rain Fog/Mist FEW085 OVC110 66.9 64.9 93% 30.1 1019.1 0.14 0.21
19 14:52 SW 6 5.00 Thunderstorm in Vicinity Light Rain Fog/Mist FEW049 FEW060 BKN110 66.9 64 91% 30.11 1019.2 0.06
19 13:52 S 10 10.00 Light Rain BKN060 69.1 64 84% 30.1 1018.9 0.01
19 12:52 S 8 10.00 Partly Cloudy SCT070 71.1 61 73 61 71% 30.09 1018.7
19 11:52 S 6 10.00 Fair CLR 71.1 62.1 73% 30.11 1019.1
19 10:52 S 9 G 17 10.00 Mostly Cloudy BKN060 73 62.1 69% 30.1 1018.9
19 09:52 Calm 10.00 Partly Cloudy SCT075 72 61 68% 30.12 1019.4
19 08:52 S 10 10.00 A Few Clouds FEW095 70 61 73% 30.12 1019.5
19 07:52 SE 9 10.00 Mostly Cloudy BKN110 64.9 59 81% 30.13 1019.7
19 06:52 SE 8 10.00 A Few Clouds FEW090 61 57.9 64 60.1 90% 30.12 1019.5
19 05:52 E 9 10.00 Partly Cloudy SCT070 61 57.9 90% 30.12 1019.4
19 04:52 SE 8 10.00 A Few Clouds FEW085 61 57.9 90% 30.12 1019.6
19 03:52 SE 8 10.00 A Few Clouds FEW075 61 59 93% 30.12 1019.5
19 02:52 SE 6 10.00 Mostly Cloudy BKN070 63 60.1 90% 30.13 1019.8
19 01:52 SE 8 10.00 Mostly Cloudy BKN070 63 60.1 90% 30.14 1020.0
19 00:52 SE 8 10.00 A Few Clouds FEW070 63 59 80.1 63 87% 30.14 1020.0
18 23:52 SE 8 10.00 A Few Clouds FEW070 64 60.1 87% 30.14 1020.0
18 22:52 SE 8 10.00 Fair CLR 66 60.1 81% 30.13 1019.9
18 21:52 SE 9 10.00 Fair CLR 68 62.1 81% 30.13 1019.8
18 20:52 E 7 10.00 Fair CLR 72 62.1 71% 30.12 1019.5
18 19:52 SE 5 10.00 Fair CLR 78.1 61 56% 80 30.13 1019.6
18 18:52 SE 7 10.00 A Few Clouds FEW065 80.1 62.1 82 77 54% 81 30.14 1020.1
18 17:52 SW 7 10.00 Partly Cloudy FEW050 SCT060 80.1 63 56% 81 30.15 1020.6
18 16:52 S 5 10.00 Partly Cloudy SCT055 80.1 60.1 51% 81 30.16 1021.0
18 15:52 S 3 10.00 Mostly Cloudy BKN050 81 61 51% 82 30.18 1021.6
18 14:52 Vrbl 3 10.00 A Few Clouds FEW050 81 61 51% 82 30.19 1022.0
18 13:52 S 7 10.00 Fair CLR 79 57.9 49% 80 30.21 1022.5
18 12:52 Vrbl 5 10.00 Fair CLR 78.1 57.9 78.1 55 50% 79 30.22 1023.0
18 11:52 S 6 10.00 Fair CLR 75 55 50% 78 30.23 1023.3
18 10:52 SE 7 10.00 Fair CLR 73.9 57 56% 30.24 1023.7
18 09:52 SE 8 10.00 Fair CLR 70 55.9 61% 30.25 1023.8
18 08:52 E 6 10.00 Fair CLR 66 55.9 70% 30.25 1023.8
18 07:52 Calm 10.00 Fair CLR 61 55 81% 30.25 1023.7
18 06:52 Calm 10.00 Fair CLR 55 54 60.1 52 96% 30.23 1023.4
18 05:52 Calm 10.00 Fair CLR 53.1 51.1 93% 30.23 1023.4
18 04:52 SW 3 10.00 Fair CLR 53.1 51.1 93% 30.23 1023.2
18 03:52 NE 3 10.00 Fair CLR 57.9 53.1 84% 30.22 1022.7
18 02:52 NE 3 10.00 Fair CLR 60.1 54 80% 30.22 1022.8
18 01:52 Calm 10.00 Fair CLR 57 55 93% 30.22 1022.8
18 00:52 Calm 10.00 Fair CLR 59 55 78.1 57.9 87% 30.22 1023.0
17 23:52 Calm 10.00 Fair CLR 60.1 57 90% 30.21 1022.4
17 22:52 SE 5 10.00 Fair CLR 63 57 81% 30.18 1021.6
17 21:52 E 7 10.00 Fair CLR 70 55 59% 30.17 1021.0
17 20:52 NE 6 10.00 Fair CLR 72 55.9 57% 30.16 1020.9
17 19:52 NE 9 10.00 Fair CLR 75.9 55.9 50% 78 30.15 1020.4
17 18:52 N 9 10.00 A Few Clouds FEW055 78.1 57 82 77 48% 79 30.15 1020.4
17 17:52 NE 10 10.00 A Few Clouds FEW055 79 57 47% 80 30.15 1020.4
17 16:52 N 10 10.00 A Few Clouds FEW050 FEW065 81 59 47% 81 30.15 1020.6
17 15:52 NE 12 10.00 A Few Clouds FEW060 81 59 47% 81 30.15 1020.4
17 14:52 N 13 10.00 Mostly Cloudy FEW050 SCT070 BKN080 80.1 60.1 51% 81 30.16 1020.8
17 12:52 NW 6 10.00 Partly Cloudy SCT045 79 60.1 80.1 63 52% 80 30.18 1021.2
17 11:52 Vrbl 5 10.00 Fair CLR 79 61 54% 80 30.18 1021.3
Date Time (cdt) Wind (mph) Vis. (mi.) Weather Sky Cond. Air Dwpt Max. Min. Relative Humidity Wind Chill (°F) Heat Index (°F) altimeter (in) sea level (mb) 1 hr 3 hr 6 hr
6 hour
Temperature (ºF) Pressure Precipitation (in)